• Em Portugal
  • Lista de países
  • Para 7 dias
  • Temperatura da água
  • Mapas de satélite
  • Mapa do tempo
  • Widgets de tempo
  • user-avatar
    Iniciar Sessão

    Previsão horária em Madinat 'Isa

    Hoje, 26 Setembro, Terça-feira

    Tempo Temperatura Precipitação Vento Pressão Humidade
    00:00 +33°C° 0 mm 1 m/s 754 mmHg 47%
    01:00 +32°C° 0 mm 2 m/s 754 mmHg 46%
    02:00 +32°C° 0 mm 2 m/s 754 mmHg 44%
    03:00 +32°C° 0 mm 2 m/s 754 mmHg 43%
    04:00 +32°C° 0 mm 2 m/s 754 mmHg 42%
    05:00 +33°C° 0 mm 3 m/s 754 mmHg 40%
    06:00 +33°C° 0 mm 3 m/s 754 mmHg 39%
    07:00 +35°C° 0 mm 3 m/s 755 mmHg 34%
    08:00 +37°C° 0 mm 3 m/s 755 mmHg 29%
    09:00 +38°C° 0 mm 4 m/s 755 mmHg 24%
    10:00 +41°C° 0 mm 4 m/s 755 mmHg 21%
    11:00 +42°C° 0 mm 4 m/s 755 mmHg 19%
    12:00 +43°C° 0 mm 4 m/s 754 mmHg 16%
    13:00 +43°C° 0 mm 3 m/s 754 mmHg 16%
    14:00 +43°C° 0 mm 3 m/s 754 mmHg 17%
    15:00 +43°C° 0 mm 3 m/s 754 mmHg 17%
    16:00 +42°C° 0 mm 3 m/s 754 mmHg 22%
    17:00 +39°C° 0 mm 3 m/s 754 mmHg 26%
    18:00 +38°C° 0 mm 2 m/s 754 mmHg 31%
    19:00 +37°C° 0 mm 2 m/s 754 mmHg 34%
    20:00 +36°C° 0 mm 2 m/s 754 mmHg 36%
    21:00 +35°C° 0 mm 2 m/s 755 mmHg 39%
    22:00 +35°C° 0 mm 2 m/s 755 mmHg 41%
    23:00 +34°C° 0 mm 2 m/s 755 mmHg 42%

    Amanhã, 27 Setembro, Quarta-feira

    Tempo Temperatura Precipitação Vento Pressão Humidade
    00:00 +34°C° 0 mm 2 m/s 754 mmHg 43%
    01:00 +32°C° 0 mm 1 m/s 754 mmHg 43%
    02:00 +32°C° 0 mm 1 m/s 754 mmHg 44%
    03:00 +31°C° 0 mm 1 m/s 754 mmHg 44%
    04:00 +31°C° 0 mm 1 m/s 754 mmHg 42%
    05:00 +31°C° 0 mm 1 m/s 755 mmHg 41%
    06:00 +31°C° 0 mm 1 m/s 755 mmHg 39%
    07:00 +33°C° 0 mm 1 m/s 755 mmHg 35%
    08:00 +35°C° 0 mm 1 m/s 756 mmHg 31%
    09:00 +37°C° 0 mm 1 m/s 756 mmHg 27%
    10:00 +39°C° 0 mm 1 m/s 756 mmHg 25%
    11:00 +40°C° 0 mm 1 m/s 756 mmHg 23%
    12:00 +41°C° 0 mm 2 m/s 756 mmHg 21%
    13:00 +41°C° 0 mm 2 m/s 755 mmHg 22%
    14:00 +42°C° 0 mm 3 m/s 755 mmHg 22%
    15:00 +42°C° 0 mm 3 m/s 754 mmHg 23%
    16:00 +40°C° 0 mm 3 m/s 754 mmHg 28%
    17:00 +38°C° 0 mm 3 m/s 754 mmHg 32%
    18:00 +37°C° 0 mm 3 m/s 754 mmHg 37%
    19:00 +37°C° 0 mm 3 m/s 755 mmHg 40%
    20:00 +36°C° 0 mm 2 m/s 755 mmHg 43%
    21:00 +36°C° 0 mm 2 m/s 755 mmHg 46%
    22:00 +35°C° 0 mm 2 m/s 755 mmHg 48%
    23:00 +35°C° 0 mm 2 m/s 755 mmHg 50%

    Depois de amanhã, 28 Setembro, Quinta-feira

    Tempo Temperatura Precipitação Vento Pressão Humidade
    00:00 +35°C° 0 mm 2 m/s 755 mmHg 52%
    01:00 +34°C° 0 mm 2 m/s 754 mmHg 52%
    02:00 +34°C° 0 mm 2 m/s 754 mmHg 52%
    03:00 +34°C° 0 mm 2 m/s 754 mmHg 52%
    04:00 +34°C° 0 mm 2 m/s 755 mmHg 50%
    05:00 +32°C° 0 mm 2 m/s 755 mmHg 49%
    06:00 +32°C° 0 mm 2 m/s 755 mmHg 48%
    07:00 +35°C° 0 mm 2 m/s 756 mmHg 43%
    08:00 +36°C° 0 mm 2 m/s 756 mmHg 38%
    09:00 +38°C° 0 mm 2 m/s 756 mmHg 33%
    10:00 +39°C° 0 mm 2 m/s 756 mmHg 29%
    11:00 +40°C° 0 mm 2 m/s 756 mmHg 26%
    12:00 +41°C° 0 mm 1 m/s 755 mmHg 22%
    13:00 +41°C° 0 mm 2 m/s 755 mmHg 21%
    14:00 +42°C° 0 mm 2 m/s 754 mmHg 20%
    15:00 +43°C° 0 mm 3 m/s 754 mmHg 19%
    16:00 +40°C° 0 mm 3 m/s 754 mmHg 23%
    17:00 +39°C° 0 mm 2 m/s 754 mmHg 27%
    18:00 +38°C° 0 mm 2 m/s 754 mmHg 31%
    19:00 +37°C° 0 mm 2 m/s 754 mmHg 33%
    20:00 +36°C° 0 mm 2 m/s 755 mmHg 35%
    21:00 +35°C° 0 mm 1 m/s 755 mmHg 37%
    22:00 +34°C° 0 mm 1 m/s 755 mmHg 37%
    23:00 +33°C° 0 mm 1 m/s 754 mmHg 38%

    29 Setembro, Sexta-feira

    Tempo Temperatura Precipitação Vento Pressão Humidade
    00:00 +31°C° 0 mm 0 m/s 754 mmHg 38%
    01:00 +33°C° 0 mm 1 m/s 754 mmHg 38%
    02:00 +34°C° 0 mm 2 m/s 754 mmHg 37%
    03:00 +34°C° 0 mm 2 m/s 754 mmHg 37%
    04:00 +34°C° 0 mm 3 m/s 754 mmHg 36%
    05:00 +34°C° 0 mm 3 m/s 754 mmHg 35%
    06:00 +34°C° 0 mm 3 m/s 754 mmHg 34%
    07:00 +35°C° 0 mm 3 m/s 755 mmHg 30%
    08:00 +37°C° 0 mm 3 m/s 755 mmHg 25%
    09:00 +39°C° 0 mm 3 m/s 755 mmHg 21%
    10:00 +40°C° 0 mm 3 m/s 755 mmHg 20%
    11:00 +42°C° 0 mm 3 m/s 754 mmHg 18%
    12:00 +42°C° 0 mm 2 m/s 754 mmHg 17%
    13:00 +43°C° 0 mm 3 m/s 754 mmHg 17%
    14:00 +43°C° 0 mm 3 m/s 753 mmHg 17%
    15:00 +43°C° 0 mm 3 m/s 753 mmHg 17%
    16:00 +42°C° 0 mm 3 m/s 753 mmHg 22%
    17:00 +39°C° 0 mm 3 m/s 753 mmHg 27%
    18:00 +38°C° 0 mm 2 m/s 753 mmHg 32%
    19:00 +37°C° 0 mm 2 m/s 754 mmHg 36%
    20:00 +37°C° 0 mm 2 m/s 754 mmHg 40%
    21:00 +36°C° 0 mm 2 m/s 754 mmHg 44%
    22:00 +35°C° 0 mm 2 m/s 754 mmHg 48%
    23:00 +33°C° 0 mm 1 m/s 754 mmHg 53%

    30 Setembro, Sábado

    Tempo Temperatura Precipitação Vento Pressão Humidade
    00:00 +30°C° 0 mm 0 m/s 754 mmHg 57%
    01:00 +30°C° 0 mm 0 m/s 753 mmHg 55%
    02:00 +32°C° 0 mm 1 m/s 753 mmHg 53%
    03:00 +32°C° 0 mm 1 m/s 753 mmHg 51%
    04:00 +32°C° 0 mm 1 m/s 754 mmHg 50%
    05:00 +32°C° 0 mm 2 m/s 754 mmHg 49%
    06:00 +32°C° 0 mm 2 m/s 755 mmHg 48%
    07:00 +34°C° 0 mm 2 m/s 755 mmHg 43%
    08:00 +36°C° 0 mm 2 m/s 755 mmHg 39%
    09:00 +38°C° 0 mm 2 m/s 756 mmHg 34%
    10:00 +39°C° 0 mm 2 m/s 755 mmHg 31%
    11:00 +40°C° 0 mm 2 m/s 755 mmHg 28%
    12:00 +41°C° 0 mm 2 m/s 755 mmHg 25%
    13:00 +41°C° 0 mm 2 m/s 754 mmHg 25%
    14:00 +42°C° 0 mm 3 m/s 754 mmHg 25%
    15:00 +42°C° 0 mm 4 m/s 754 mmHg 25%
    16:00 +41°C° 0 mm 4 m/s 754 mmHg 31%
    17:00 +38°C° 0 mm 4 m/s 754 mmHg 37%
    18:00 +37°C° 0 mm 4 m/s 754 mmHg 43%
    19:00 +37°C° 0 mm 4 m/s 755 mmHg 44%
    20:00 +36°C° 0 mm 3 m/s 755 mmHg 46%
    21:00 +36°C° 0 mm 3 m/s 755 mmHg 47%
    22:00 +36°C° 0 mm 3 m/s 755 mmHg 48%
    23:00 +35°C° 0 mm 2 m/s 755 mmHg 49%

    1 Outubro, Domingo

    Tempo Temperatura Precipitação Vento Pressão Humidade
    00:00 +35°C° 0 mm 2 m/s 755 mmHg 50%
    01:00 +34°C° 0 mm 2 m/s 755 mmHg 51%
    02:00 +34°C° 0 mm 2 m/s 755 mmHg 51%
    03:00 +32°C° 0 mm 2 m/s 755 mmHg 52%
    04:00 +32°C° 0 mm 2 m/s 755 mmHg 53%
    05:00 +32°C° 0 mm 2 m/s 756 mmHg 53%
    06:00 +32°C° 0 mm 2 m/s 756 mmHg 54%
    07:00 +34°C° 0 mm 2 m/s 756 mmHg 49%
    08:00 +36°C° 0 mm 2 m/s 757 mmHg 45%
    09:00 +37°C° 0 mm 2 m/s 757 mmHg 40%
    10:00 +38°C° 0 mm 2 m/s 756 mmHg 36%
    11:00 +39°C° 0 mm 2 m/s 756 mmHg 32%
    12:00 +40°C° 0 mm 2 m/s 756 mmHg 28%
    13:00 +42°C° 0 mm 3 m/s 755 mmHg 26%
    14:00 +42°C° 0 mm 3 m/s 755 mmHg 24%
    15:00 +43°C° 0 mm 4 m/s 755 mmHg 22%
    16:00 +41°C° 0 mm 4 m/s 755 mmHg 27%
    17:00 +40°C° 0 mm 4 m/s 755 mmHg 32%
    18:00 +37°C° 0 mm 4 m/s 755 mmHg 38%
    19:00 +37°C° 0 mm 3 m/s 755 mmHg 39%
    20:00 +36°C° 0 mm 3 m/s 755 mmHg 41%
    21:00 +36°C° 0 mm 3 m/s 755 mmHg 42%
    22:00 +35°C° 0 mm 3 m/s 755 mmHg 43%
    23:00 +35°C° 0 mm 2 m/s 755 mmHg 44%
    Mostrar mais